Flag for Malaysia Weather past 2 weeks in Langkawi, Malaysia

81 °F

Partly cloudy.

Feels Like: 87 °F
Forecast: 77 / 89 °F
Wind: No wind

Location: Langkawi

Current Time: Oct 8, 2015 at 4:04:47 AM

Latest Report: Oct 8, 2015 at 3:00 AM

Visibility: 2 mi

Pressure: 29.86 "Hg

Humidity: 89%

Dew point: 77 °F

Location of LangkawiLocation

Historic Weather in Langkawi — Graph


Langkawi temperature yesterday

Maximum temperature yesterday: 88 °F (at 2:00 PM)
Minimum temperature yesterday: 75 °F (at 5:00 AM)
Average temperature yesterday: 82 °F

Past Weeks' High & Low Weather Summary

High88 °F (Sep 25, 11:00 AM)100% (Sep 24, 9:00 AM)29.98 "Hg (Sep 24, 9:00 AM)
Low73 °F (Sep 24, 4:00 AM)66% (Sep 24, 5:00 PM)29.74 "Hg (Sep 25, 4:00 PM)
Average82 °F86%29.86 "Hg
* Reported Sep 23 2:00 AM — Oct 8 2:00 AM, Langkawi, Weather by CustomWeather, © 2015

Note: Actual official high and low records may vary slightly from our data, if they occured in-between our weather recording intervals... More about our weather records


Langkawi weather history for previous 24 hours

Time TempWeatherWind HumidityBarometerVisibility
2:00 AM
Thu, Oct 8
81 °FPartly cloudy.2 mph89%29.89 "Hg1 mi
1:00 AM81 °FPartly cloudy.2 mph89%29.92 "Hg1 mi
12:00 AM81 °FPartly cloudy.No wind89%29.92 "Hg1 mi
11:00 PM
Wed, Oct 7
81 °FPartly cloudy.2 mph89%29.92 "Hg1 mi
10:00 PM82 °FPartly cloudy.1 mph89%29.92 "Hg1 mi
9:00 PM82 °FPartly cloudy.2 mph89%29.89 "Hg2 mi
8:00 PM84 °FPartly cloudy.2 mph79%29.86 "Hg2 mi
7:00 PM84 °FBroken clouds.3 mph79%29.83 "Hg2 mi
6:00 PM86 °FBroken clouds.5 mph79%29.80 "Hg2 mi
5:00 PM86 °FBroken clouds.6 mph75%29.80 "Hg2 mi
4:00 PM88 °FBroken clouds.5 mph75%29.83 "Hg2 mi
3:00 PM88 °FBroken clouds.6 mph70%29.83 "Hg2 mi
2:00 PM88 °FBroken clouds.6 mph70%29.86 "Hg2 mi
1:00 PM86 °FBroken clouds.5 mph79%29.89 "Hg1 mi
12:00 PM86 °FBroken clouds.5 mph75%29.92 "Hg1 mi
11:00 AM84 °FBroken clouds.3 mph79%29.95 "Hg1 mi
10:00 AM82 °FBroken clouds.No wind84%29.95 "Hg2 mi
9:00 AM79 °FBroken clouds.2 mph89%29.92 "Hg2 mi
8:00 AM77 °FBroken clouds.No wind94%29.89 "Hg2 mi
7:00 AM77 °FPartly cloudy.1 mph94%29.89 "Hg2 mi
6:00 AM75 °FPartly cloudy.1 mph94%29.86 "Hg2 mi
5:00 AM75 °FPartly cloudy.2 mph94%29.86 "Hg2 mi
Weather by CustomWeather, © 2015

See weather overviewHow to use our weather pages